NWK34 YSSY-YSCB

Flight info

Callsign NWK34
Flight time 0h 39m
Altitude 22000
Route MARUB7/34R WOL H65 LEECE
Aircraft A319/M-SDE3FGHIRWY/LB1

Departure

Time 2026-05-04 07:20
Airport Sydney Kingsford Smith International Airport (YSSY)

Arrival

Time 2026-05-04 07:59
Airport Canberra Airport (YSCB)
Time Latitude Longitude Altitude Speed Heading
2026-05-04 06:50 -33.93117 151.17713 30 ft 0 kts 190°
2026-05-04 07:05 -33.93102 151.17716 29 ft 4 kts 192°
2026-05-04 07:05 -33.93076 151.17724 30 ft 4 kts 202°
2026-05-04 07:05 -33.93055 151.17740 30 ft 4 kts 246°
2026-05-04 07:06 -33.93053 151.17753 30 ft 0 kts 295°
2026-05-04 07:09 -33.93051 151.17750 30 ft 1 kts 295°
2026-05-04 07:09 -33.93047 151.17739 30 ft 3 kts 296°
2026-05-04 07:10 -33.93031 151.17698 30 ft 10 kts 296°
2026-05-04 07:10 -33.93004 151.17589 30 ft 14 kts 276°
2026-05-04 07:12 -33.93859 151.17757 30 ft 22 kts 134°
2026-05-04 07:12 -33.94010 151.17807 29 ft 24 kts 167°
2026-05-04 07:12 -33.94178 151.17852 30 ft 25 kts 168°
2026-05-04 07:12 -33.94356 151.17898 30 ft 27 kts 168°
2026-05-04 07:13 -33.94518 151.17888 30 ft 23 kts 183°
2026-05-04 07:13 -33.94678 151.17930 31 ft 24 kts 164°
2026-05-04 07:13 -33.94846 151.17971 30 ft 25 kts 169°
2026-05-04 07:14 -33.95044 151.18416 30 ft 0 kts 78°
2026-05-04 07:15 -33.95044 151.18417 30 ft 0 kts 78°
2026-05-04 07:15 -33.95043 151.18420 30 ft 1 kts 78°
2026-05-04 07:16 -33.95038 151.18459 30 ft 10 kts 84°
2026-05-04 07:16 -33.95088 151.18532 30 ft 14 kts 155°
2026-05-04 07:16 -33.95174 151.18606 30 ft 16 kts 138°
2026-05-04 07:16 -33.95261 151.18704 30 ft 18 kts 137°
2026-05-04 07:17 -33.95375 151.18738 30 ft 18 kts 172°
2026-05-04 07:17 -33.95504 151.18767 30 ft 20 kts 168°
2026-05-04 07:17 -33.95645 151.18802 30 ft 22 kts 168°
2026-05-04 07:17 -33.95796 151.18842 30 ft 24 kts 167°
2026-05-04 07:18 -33.95961 151.18887 30 ft 25 kts 167°
2026-05-04 07:18 -33.96139 151.18934 30 ft 27 kts 168°
2026-05-04 07:18 -33.96328 151.18982 30 ft 28 kts 169°
2026-05-04 07:18 -33.96528 151.19034 30 ft 30 kts 168°
2026-05-04 07:19 -33.96739 151.19076 30 ft 32 kts 186°
2026-05-04 07:19 -33.96957 151.19100 30 ft 31 kts 167°
2026-05-04 07:19 -33.97120 151.19176 30 ft 22 kts 120°
2026-05-04 07:19 -33.97085 151.19356 25 ft 25 kts 46°
2026-05-04 07:20 -33.96922 151.19337 24 ft 32 kts 348°
2026-05-04 07:20 -33.96484 151.19225 26 ft 93 kts 347°
2026-05-04 07:20 -33.95677 151.19012 83 ft 138 kts 348°
2026-05-04 07:20 -33.94721 151.18762 630 ft 144 kts 354°
2026-05-04 07:22 -33.93747 151.28055 4900 ft 223 kts 82°
2026-05-04 07:22 -33.93686 151.30020 5271 ft 248 kts 83°
2026-05-04 07:23 -33.93619 151.32208 5807 ft 274 kts 83°
2026-05-04 07:23 -33.93548 151.34586 6493 ft 292 kts 84°
2026-05-04 07:23 -33.93480 151.37057 7423 ft 298 kts 84°
2026-05-04 07:23 -33.93415 151.39567 8445 ft 301 kts 84°
2026-05-04 07:24 -33.93343 151.42107 9452 ft 305 kts 84°
2026-05-04 07:24 -33.93265 151.44690 10304 ft 315 kts 84°
2026-05-04 07:24 -33.93177 151.47431 10699 ft 339 kts 84°
2026-05-04 07:24 -33.93299 151.50323 11365 ft 355 kts 99°
2026-05-04 07:25 -33.94181 151.53134 12190 ft 365 kts 119°
2026-05-04 07:26 -34.08625 151.51346 17604 ft 362 kts 237°
2026-05-04 07:27 -34.10198 151.48953 18347 ft 366 kts 237°
2026-05-04 07:27 -34.11781 151.46538 19000 ft 369 kts 237°
2026-05-04 07:27 -34.13375 151.44104 19679 ft 371 kts 237°
2026-05-04 07:27 -34.14982 151.41662 20379 ft 372 kts 237°
2026-05-04 07:28 -34.16601 151.39209 21065 ft 374 kts 238°
2026-05-04 07:28 -34.18224 151.36750 21718 ft 376 kts 238°
2026-05-04 07:28 -34.19850 151.34280 21957 ft 376 kts 238°
2026-05-04 07:28 -34.21461 151.31833 22016 ft 365 kts 238°
2026-05-04 07:29 -34.23022 151.29465 22017 ft 357 kts 238°
2026-05-04 07:29 -34.24560 151.27123 22014 ft 355 kts 239°
2026-05-04 07:29 -34.26086 151.24784 22013 ft 354 kts 239°
2026-05-04 07:29 -34.27611 151.22445 22013 ft 354 kts 239°
2026-05-04 07:30 -34.29136 151.20106 22011 ft 354 kts 239°
2026-05-04 07:30 -34.30642 151.17803 22008 ft 354 kts 239°
2026-05-04 07:30 -34.32166 151.15464 22008 ft 354 kts 239°
2026-05-04 07:30 -34.33691 151.13123 22019 ft 354 kts 239°
2026-05-04 07:31 -34.35215 151.10783 22013 ft 354 kts 239°
2026-05-04 07:31 -34.36746 151.08439 22011 ft 354 kts 239°
2026-05-04 07:33 -34.47424 150.92027 22011 ft 355 kts 239°
2026-05-04 07:33 -34.48927 150.89711 22009 ft 354 kts 239°
2026-05-04 07:33 -34.50447 150.87367 22017 ft 354 kts 239°
2026-05-04 07:33 -34.51970 150.85017 22014 ft 354 kts 239°
2026-05-04 07:34 -34.53489 150.82666 22008 ft 355 kts 239°
2026-05-04 07:34 -34.55013 150.80310 22003 ft 355 kts 239°
2026-05-04 07:34 -34.56529 150.77952 21995 ft 354 kts 240°
2026-05-04 07:34 -34.58005 150.75561 21994 ft 354 kts 241°
2026-05-04 07:35 -34.59457 150.73142 22002 ft 353 kts 242°
2026-05-04 07:35 -34.60892 150.70729 22003 ft 353 kts 242°
2026-05-04 07:35 -34.62332 150.68306 22002 ft 353 kts 242°
2026-05-04 07:35 -34.63774 150.65889 21998 ft 353 kts 242°
2026-05-04 07:36 -34.65218 150.63474 22004 ft 354 kts 241°
2026-05-04 07:36 -34.66672 150.61056 22006 ft 354 kts 241°
2026-05-04 07:38 -34.76804 150.44188 22016 ft 354 kts 242°
2026-05-04 07:38 -34.78251 150.41773 22007 ft 352 kts 242°
2026-05-04 07:38 -34.79695 150.39354 22014 ft 353 kts 242°
2026-05-04 07:38 -34.81140 150.36931 22027 ft 354 kts 242°
2026-05-04 07:39 -34.82586 150.34509 22017 ft 354 kts 242°
2026-05-04 07:39 -34.84036 150.32082 22005 ft 354 kts 242°
2026-05-04 07:39 -34.85481 150.29656 22001 ft 354 kts 242°
2026-05-04 07:39 -34.86924 150.27226 22018 ft 355 kts 242°
2026-05-04 07:40 -34.88369 150.24794 22014 ft 354 kts 242°
2026-05-04 07:40 -34.89816 150.22367 22019 ft 354 kts 242°
2026-05-04 07:40 -34.91261 150.19944 22017 ft 354 kts 242°
2026-05-04 07:40 -34.92704 150.17518 22017 ft 354 kts 242°
2026-05-04 07:41 -34.94146 150.15091 22032 ft 354 kts 242°
2026-05-04 07:41 -34.95570 150.12693 22038 ft 354 kts 243°
2026-05-04 07:41 -34.97012 150.10262 22039 ft 354 kts 243°
2026-05-04 07:41 -34.98454 150.07827 22037 ft 354 kts 243°
2026-05-04 07:42 -34.99894 150.05396 21941 ft 352 kts 243°
2026-05-04 07:42 -35.01317 150.02995 21678 ft 347 kts 243°
2026-05-04 07:42 -35.02730 150.00608 21434 ft 346 kts 243°
2026-05-04 07:42 -35.04133 149.98231 21176 ft 345 kts 243°
2026-05-04 07:43 -35.05563 149.95883 20918 ft 345 kts 238°
2026-05-04 07:43 -35.07198 149.93731 20520 ft 345 kts 235°
2026-05-04 07:43 -35.08844 149.91609 20069 ft 344 kts 234°
2026-05-04 07:43 -35.10490 149.89496 19614 ft 343 kts 234°
2026-05-04 07:44 -35.12130 149.87390 19179 ft 342 kts 234°
2026-05-04 07:44 -35.13763 149.85286 18729 ft 341 kts 234°
2026-05-04 07:44 -35.15389 149.83185 18265 ft 340 kts 234°
2026-05-04 07:44 -35.17011 149.81090 17797 ft 338 kts 234°
2026-05-04 07:45 -35.18623 149.79011 17360 ft 335 kts 234°
2026-05-04 07:45 -35.20220 149.76951 16928 ft 332 kts 234°
2026-05-04 07:45 -35.21803 149.74904 16504 ft 330 kts 234°
2026-05-04 07:45 -35.23371 149.72873 16084 ft 328 kts 234°
2026-05-04 07:46 -35.24931 149.70849 15676 ft 326 kts 234°
2026-05-04 07:46 -35.26479 149.68836 15259 ft 324 kts 235°
2026-05-04 07:46 -35.28015 149.66834 14849 ft 322 kts 234°
2026-05-04 07:46 -35.29548 149.64838 14445 ft 321 kts 235°
2026-05-04 07:47 -35.31078 149.62850 14042 ft 321 kts 234°
2026-05-04 07:47 -35.32589 149.60890 13617 ft 320 kts 235°
2026-05-04 07:47 -35.34111 149.58915 13215 ft 318 kts 235°
2026-05-04 07:49 -35.44429 149.45478 10540 ft 297 kts 236°
2026-05-04 07:49 -35.45824 149.43658 10124 ft 289 kts 237°
2026-05-04 07:49 -35.47184 149.41887 9699 ft 281 kts 237°
2026-05-04 07:50 -35.48504 149.40170 9331 ft 271 kts 237°
2026-05-04 07:50 -35.49777 149.38510 8992 ft 262 kts 237°
2026-05-04 07:50 -35.51022 149.36873 8665 ft 263 kts 237°
2026-05-04 07:50 -35.52257 149.35248 8500 ft 256 kts 237°
2026-05-04 07:51 -35.53454 149.33677 8355 ft 249 kts 238°
2026-05-04 07:51 -35.54527 149.32085 8003 ft 234 kts 248°
2026-05-04 07:51 -35.55216 149.30375 7674 ft 214 kts 260°
2026-05-04 07:51 -35.55559 149.28688 7499 ft 196 kts 271°
2026-05-04 07:52 -35.55735 149.27072 7420 ft 183 kts 270°
2026-05-04 07:52 -35.55912 149.25583 7317 ft 173 kts 271°
2026-05-04 07:52 -35.56080 149.24134 7233 ft 171 kts 271°
2026-05-04 07:52 -35.56158 149.22699 7149 ft 164 kts 283°
2026-05-04 07:53 -35.55802 149.21482 7088 ft 148 kts 303°
2026-05-04 07:54 -35.48745 149.19444 5320 ft 168 kts 352°
2026-05-04 07:55 -35.47562 149.19444 5080 ft 173 kts 352°
2026-05-04 07:55 -35.46389 149.19447 4858 ft 162 kts 353°
2026-05-04 07:55 -35.45284 149.19448 4649 ft 156 kts 352°
2026-05-04 07:55 -35.44194 149.19446 4436 ft 157 kts 354°
2026-05-04 07:56 -35.43117 149.19447 4228 ft 153 kts 354°
2026-05-04 07:56 -35.42058 149.19446 4024 ft 152 kts 354°
2026-05-04 07:56 -35.40995 149.19446 3824 ft 151 kts 355°
2026-05-04 07:56 -35.40022 149.19448 3613 ft 131 kts 356°
2026-05-04 07:57 -35.39141 149.19448 3428 ft 126 kts 358°
2026-05-04 07:57 -35.38292 149.19447 3248 ft 121 kts 358°
2026-05-04 07:57 -35.37449 149.19446 3100 ft 119 kts 357°
2026-05-04 07:57 -35.36604 149.19445 2925 ft 124 kts 356°
2026-05-04 07:58 -35.35747 149.19445 2751 ft 120 kts 358°
2026-05-04 07:58 -35.34913 149.19445 2572 ft 118 kts 358°
2026-05-04 07:58 -35.34088 149.19443 2391 ft 115 kts 356°
2026-05-04 07:58 -35.33253 149.19442 2267 ft 123 kts 358°
2026-05-04 07:59 -35.32406 149.19444 2081 ft 120 kts 357°
2026-05-04 07:59 -35.31607 149.19446 1927 ft 115 kts 356°
2026-05-04 07:59 -35.30833 149.19427 1878 ft 98 kts 358°
2026-05-04 07:59 -35.30458 149.19438 1878 ft 10 kts
2026-05-04 08:00 -35.30451 149.19439 1880 ft 7 kts
2026-05-04 08:00 -35.30204 149.19435 1880 ft 26 kts 331°
2026-05-04 08:00 -35.30157 149.19283 1880 ft 17 kts 277°
2026-05-04 08:02 -35.30781 149.19243 1880 ft 17 kts 177°
2026-05-04 08:02 -35.30873 149.19242 1880 ft 0 kts 218°
2026-05-04 08:02 -35.30871 149.19236 1880 ft 1 kts 282°
2026-05-04 08:03 -35.30841 149.19183 1880 ft 11 kts 282°
2026-05-04 08:03 -35.30840 149.19137 1880 ft 2 kts 270°
2026-05-04 08:03 -35.30840 149.19136 1880 ft 0 kts 270°